EHI
7 14 28 35 29 16 4 1 0 0 0 0 0 0 0 0 0 0 2 8 16 13 5 4 6 4 1 2 2 2 1 1 1 1 0 0 0 1 1 1 2 3 3 2 1 0 0 0 0
11 21 33 34 24 10 2 0 0 0 0 0 0 0 0 0 0 0 3 9 14 12 6 5 5 3 1 1 2 3 3 3 2 1 0 0 0 0 0 1 2 3 3 2 1 0 0 0 0
20 30 36 28 15 5 1 0 0 0 0 0 0 0 0 0 0 0 2 6 9 10 8 7 6 3 1 1 3 4 4 4 3 2 1 1 1 1 0 1 2 3 3 3 2 1 0 0 0
30 34 30 18 8 2 0 0 0 0 0 0 0 0 0 0 0 0 1 2 5 9 11 12 9 4 2 3 4 3 2 2 2 2 2 2 2 1 0 1 2 2 2 2 2 2 1 0 0
36 32 21 10 4 1 0 0 0 0 0 0 0 0 0 0 0 0 0 2 5 9 14 15 12 7 4 4 5 3 2 1 1 1 1 2 1 1 0 0 1 1 1 2 2 2 1 1 1
34 26 14 6 2 0 0 0 1 0 0 0 1 0 0 0 0 0 0 2 5 9 13 14 12 9 7 6 6 5 3 2 1 0 0 0 0 0 0 1 2 2 2 2 3 3 3 2 2
25 18 9 3 1 0 0 0 0 0 0 0 0 0 0 0 0 0 0 1 3 6 8 8 7 8 7 8 7 6 6 4 2 1 0 0 0 1 1 3 3 3 3 3 4 5 4 3 3
14 11 6 2 0 0 0 0 0 0 0 0 0 0 0 1 1 0 0 0 1 3 4 3 4 5 6 7 8 7 7 6 4 2 1 1 1 2 3 5 6 5 3 4 5 5 4 3 3
8 7 4 1 0 0 0 0 0 0 0 0 0 1 1 1 2 1 0 0 1 1 1 2 4 5 5 7 8 6 5 6 6 5 5 5 5 4 5 7 9 7 5 4 4 4 3 3 3
7 6 3 1 0 0 0 0 0 0 0 1 2 2 1 1 2 2 1 1 1 1 1 2 4 4 5 7 8 5 5 8 8 7 8 9 9 7 7 9 10 9 6 4 4 3 3 3 4
4 3 1 0 0 0 0 0 0 0 0 1 4 4 2 1 2 2 2 2 1 0 1 3 3 3 4 8 9 7 8 10 9 9 10 9 8 7 7 9 10 9 7 5 5 4 4 4 5
1 0 0 0 0 0 0 0 0 0 0 2 5 6 3 1 2 2 2 1 1 2 2 3 5 6 9 12 13 10 9 9 9 11 11 9 8 6 6 6 7 7 6 6 6 5 4 5 5
0 0 0 0 0 0 0 0 0 0 1 3 6 6 3 1 2 2 2 2 4 5 5 6 10 15 16 16 16 12 8 7 8 11 11 10 8 7 6 6 5 3 4 6 7 5 5 5 6
0 0 0 0 0 0 0 0 0 1 2 5 7 6 3 2 3 4 4 6 10 11 10 10 16 21 21 17 15 12 9 7 8 10 11 10 8 8 9 7 4 3 3 6 8 6 5 6 7
0 0 0 0 0 0 1 2 2 3 4 7 7 6 4 3 5 6 7 9 14 17 15 13 16 22 22 18 14 10 8 8 8 9 11 9 8 9 11 10 7 5 5 8 9 7 6 6 7
0 0 0 0 0 0 1 2 4 5 5 7 7 7 7 6 6 7 8 10 15 20 20 16 17 22 24 22 16 9 7 8 9 11 13 12 10 10 11 11 10 8 9 10 9 8 8 7 6
0 0 0 0 0 0 0 2 5 6 8 8 8 8 10 10 8 8 9 10 14 22 26 23 22 25 27 25 19 11 9 11 12 14 17 17 14 12 11 10 9 9 10 11 10 10 11 11 9
0 0 0 0 0 0 0 2 5 8 10 11 10 11 14 13 10 9 11 12 17 27 33 32 29 30 31 28 21 14 13 15 16 17 19 19 15 12 10 7 6 7 9 10 12 13 14 13 11
0 0 0 0 0 0 0 3 6 8 9 11 13 14 16 16 13 14 15 14 19 31 39 38 36 35 34 30 25 19 16 17 18 20 21 19 14 10 9 6 5 6 9 10 12 14 13 11 10
0 0 0 0 0 0 1 4 6 6 5 8 12 16 18 19 21 22 21 18 21 33 40 40 40 39 36 33 28 21 17 16 19 21 22 19 14 10 8 9 8 8 9 11 13 13 12 10 9
0 0 0 0 0 0 1 4 6 5 4 5 9 14 17 21 27 30 27 23 24 33 39 39 41 41 39 35 29 21 17 15 18 21 22 20 16 12 11 11 10 9 10 11 13 13 11 10 9
0 0 0 0 0 1 1 3 5 6 7 6 7 10 14 20 27 31 31 28 28 32 36 40 43 44 42 37 30 24 18 14 15 20 21 19 18 16 15 14 13 12 11 10 11 11 10 11 11
0 0 0 0 0 0 0 1 3 5 7 8 8 7 10 17 24 29 31 31 29 30 34 40 45 46 44 41 35 29 22 16 17 22 23 21 18 17 16 15 14 13 12 12 11 11 12 12 11
0 0 0 0 0 0 0 1 3 4 5 9 10 8 8 13 21 28 31 31 31 30 33 40 45 46 44 42 39 34 29 24 23 24 24 22 19 16 14 13 12 13 14 15 15 15 15 13 12
0 0 0 0 0 0 0 1 3 4 5 7 10 9 9 11 19 28 34 35 34 33 34 39 44 44 43 41 39 38 33 27 25 23 22 21 18 14 13 12 12 13 15 17 18 18 17 15 14
0 0 0 0 0 0 0 2 4 4 5 6 8 10 10 11 18 29 36 38 37 35 34 38 43 43 41 39 39 39 35 27 24 22 20 18 15 12 13 14 14 14 16 17 18 18 18 18 17
0 0 0 0 0 0 1 3 5 5 6 6 7 9 11 12 17 27 34 37 36 36 35 37 42 42 39 38 39 38 35 29 24 23 21 17 13 12 14 15 15 15 17 17 18 19 19 19 18
0 0 0 0 0 0 1 3 5 6 7 7 7 10 12 13 16 23 30 32 33 35 36 38 41 41 38 39 39 38 36 31 26 24 22 19 14 13 15 15 15 17 19 19 19 19 18 17 16
0 0 0 0 0 0 0 2 5 6 6 8 10 12 14 14 15 20 25 28 29 32 34 37 39 39 40 40 40 40 38 32 27 24 22 21 18 16 16 16 16 17 19 20 20 19 16 14 14
0 0 0 0 0 0 1 3 5 6 6 9 12 14 15 15 16 19 22 24 25 29 32 35 35 38 41 42 42 42 38 32 26 22 22 24 22 19 17 17 17 17 18 20 21 19 15 12 12
Wind_Speed
9 11 9 6 4 3 6 10 11 12 12 12 12 12 15 14 11 9 6 9 13 14 13 13 12 12 12 11 11 11 11 10 10 9 9 9 8 8 8 8 8 7 7 7 7 7 7 6 6
9 11 8 5 3 3 9 10 11 12 11 10 12 14 16 15 13 10 8 9 13 15 13 13 14 12 12 11 11 10 10 9 9 9 8 8 8 8 8 7 7 7 7 7 6 6 6 6 5
11 12 6 4 1 7 10 9 9 11 10 11 13 14 13 11 10 9 9 10 13 15 14 14 14 13 12 11 11 10 10 9 8 8 7 7 7 7 7 6 6 6 6 6 6 6 5 5 4
7 6 5 1 7 9 10 9 9 10 11 12 11 12 13 10 10 11 10 10 13 14 15 15 15 13 12 11 10 10 9 8 7 7 6 6 6 5 5 5 5 6 6 5 5 5 5 5 5
7 4 2 3 8 9 10 10 10 11 10 13 14 14 13 12 12 12 10 10 12 13 14 15 15 13 12 11 10 9 8 8 7 6 6 5 5 5 4 5 5 5 5 5 4 4 4 5 5
4 4 1 6 10 9 10 9 10 11 11 12 13 14 11 10 11 10 10 9 11 13 14 14 15 13 12 11 10 8 7 7 6 5 5 5 5 5 4 5 5 5 5 5 4 4 5 5 5
4 3 2 6 9 9 10 10 10 9 10 11 11 12 10 10 10 10 9 9 10 12 12 12 12 11 12 11 10 8 7 6 5 5 5 5 6 5 5 5 5 5 5 5 5 5 5 5 6
4 2 4 6 9 9 8 9 10 10 10 9 9 10 10 11 10 10 9 9 9 10 11 10 10 10 9 8 10 9 8 7 6 5 5 5 6 6 6 6 5 5 5 5 6 6 6 6 7
4 1 4 6 7 7 7 9 9 10 10 11 12 13 13 12 11 10 9 9 8 8 8 8 9 8 7 8 9 8 8 6 6 4 5 5 3 4 4 5 7 7 6 6 6 7 8 8 8
2 3 5 6 6 7 7 7 7 9 10 11 13 13 13 11 10 10 9 8 8 7 8 7 7 7 5 5 6 4 5 5 4 3 3 3 2 2 2 5 7 7 7 7 7 8 8 8 6
3 4 5 6 6 6 6 7 7 8 9 10 11 13 12 11 9 9 9 9 8 7 6 7 7 5 4 4 4 2 2 3 3 2 2 1 0 1 2 2 3 4 5 4 5 6 5 5 4
2 4 5 5 5 4 6 6 8 10 10 10 11 12 10 10 9 8 8 9 8 6 6 6 7 5 4 3 2 2 2 2 2 3 1 1 0 0 0 1 1 2 2 2 2 2 3 3 3
1 2 3 4 3 5 6 7 8 11 11 12 12 11 10 9 9 8 8 8 8 7 6 6 6 6 4 3 1 1 1 2 2 3 2 1 0 0 1 0 0 1 1 2 1 2 2 2 2
1 2 2 2 2 5 7 6 7 10 11 12 12 10 9 9 9 9 8 7 7 6 6 5 6 6 4 3 1 0 1 2 2 2 2 1 0 1 1 0 1 1 1 1 2 2 2 2 2
2 2 1 1 3 6 8 5 5 8 11 11 11 11 10 9 9 8 8 7 7 6 5 5 6 6 4 3 1 1 1 1 1 2 2 1 0 0 0 1 1 1 2 2 1 2 2 2 3
4 2 2 2 2 5 5 5 7 9 10 10 10 10 10 9 9 8 9 8 8 7 5 3 4 6 4 2 1 1 1 1 1 1 2 1 0 0 1 1 1 1 2 1 1 1 1 1 2
5 5 3 2 2 3 4 6 7 8 10 10 9 9 10 9 9 8 9 9 8 7 6 4 3 5 4 3 1 0 1 1 1 1 1 1 0 1 1 0 1 1 1 1 2 0 1 1 1
6 4 1 1 3 3 3 6 10 11 10 10 10 9 10 10 9 9 9 9 9 8 6 5 4 4 3 3 2 1 1 1 1 1 1 1 0 0 1 0 1 2 1 1 1 1 1 1 1
9 3 3 2 3 3 4 7 10 10 10 11 10 10 10 10 10 10 10 10 9 8 7 5 4 4 2 2 1 1 1 1 1 1 1 1 0 0 0 1 1 1 1 1 2 2 1 1 1
8 5 4 3 4 3 1 2 7 9 10 10 11 11 11 11 11 10 9 9 9 8 7 6 4 4 3 2 1 1 1 1 2 1 1 1 1 0 0 1 1 1 0 1 2 1 1 1 0
6 7 6 5 4 4 1 0 3 7 9 10 10 11 12 13 13 11 9 9 9 9 8 6 5 4 3 3 2 1 1 0 1 1 1 1 1 0 1 1 1 2 1 1 1 1 1 1 1
6 7 8 6 5 5 3 2 5 6 8 10 10 10 11 13 13 13 10 9 9 9 9 7 6 4 4 3 2 2 2 1 1 1 1 1 0 0 1 1 1 1 1 1 1 0 1 1 1
8 9 9 7 5 6 4 2 5 7 6 9 10 11 10 12 14 14 13 10 9 10 10 8 6 5 4 3 2 2 1 1 1 1 1 1 1 0 0 0 1 1 1 1 2 1 1 0 1
8 10 9 6 4 7 6 4 4 5 7 9 11 12 12 11 13 14 13 11 9 9 9 9 7 5 4 4 3 2 1 0 0 0 1 1 1 1 0 0 1 1 1 1 1 1 1 1 1
9 8 5 5 5 6 3 1 1 5 7 8 10 11 12 11 12 13 12 11 9 10 10 10 8 6 5 4 3 2 1 1 1 1 1 1 0 1 0 1 0 1 1 1 1 1 1 1 1
10 9 6 6 7 5 2 1 2 2 4 7 8 10 11 12 12 12 12 12 10 10 10 10 9 7 6 5 3 2 2 2 1 1 0 0 0 1 1 0 0 1 1 2 1 1 1 1 1
10 8 7 7 9 6 1 2 3 3 4 7 8 9 10 10 12 13 13 12 11 10 10 10 9 7 6 5 4 3 2 1 0 0 1 1 0 1 1 0 0 0 1 2 1 1 2 1 1
12 10 6 6 5 6 4 2 2 6 6 6 7 7 10 11 10 10 11 12 11 10 10 10 9 7 6 6 4 4 3 2 1 1 0 0 1 1 1 1 0 0 0 1 1 2 2 1 2
9 11 8 6 5 5 4 2 3 5 6 6 6 7 8 9 10 11 10 10 9 9 10 10 9 8 6 5 4 4 3 3 2 1 1 0 1 1 0 1 1 1 1 1 1 2 1 2 2
11 11 10 7 6 5 4 2 1 4 7 9 7 5 8 7 7 9 9 9 9 9 8 8 9 8 7 6 5 4 3 2 2 2 1 1 0 0 0 0 1 1 1 1 1 2 2 2 2
Wind_Direction
199 215 221 235 244 227 62 59 62 65 61 55 52 59 62 57 64 87 112 107 107 109 115 115 110 109 106 103 103 103 104 108 111 110 113 117 118 119 122 123 123 125 126 126 129 131 131 130 128
224 225 230 239 245 76 70 63 60 64 68 72 65 66 70 68 78 97 104 107 110 111 116 114 114 112 110 107 104 103 105 108 113 113 116 120 121 123 126 128 129 129 128 129 129 129 132 130 133
249 249 253 240 59 65 70 71 75 75 71 74 74 66 65 75 83 98 111 116 110 112 114 116 120 118 115 113 110 107 106 107 111 113 117 120 122 126 130 133 134 134 134 135 136 136 137 138 146
244 239 243 255 64 65 75 81 80 79 73 72 76 77 74 75 93 105 113 109 106 112 116 121 125 124 121 120 118 116 113 110 113 117 120 125 128 127 132 138 139 142 142 143 146 149 153 159 165
233 264 241 80 76 76 77 80 84 82 78 77 83 88 85 85 98 109 112 109 110 112 118 128 130 129 129 127 125 124 121 122 126 131 133 135 137 140 143 149 148 146 149 152 158 163 169 181 189
261 249 261 81 79 78 78 78 75 76 82 88 94 95 93 108 110 113 114 112 110 112 117 127 132 133 133 133 133 132 130 130 134 140 147 149 149 156 159 163 161 160 163 168 177 183 188 195 206
251 289 47 72 81 76 79 78 81 77 75 79 92 99 111 113 114 119 116 112 111 115 121 129 133 134 137 139 138 138 140 140 141 145 155 164 170 174 174 173 172 175 180 186 194 201 205 211 220
246 293 51 69 78 75 80 86 84 83 81 91 93 104 116 122 125 121 116 109 108 114 122 129 134 136 142 141 145 145 146 147 148 149 159 174 179 183 185 182 184 190 193 196 204 212 217 221 228
267 19 58 68 79 92 87 88 91 95 91 84 82 96 117 128 129 125 120 114 113 111 118 123 129 134 141 142 143 150 151 154 157 166 177 179 188 182 187 184 181 192 201 206 213 220 225 228 229
151 92 78 77 81 95 90 92 100 97 95 95 96 106 120 129 132 130 124 119 114 114 115 118 121 127 137 131 134 153 151 153 173 164 178 193 203 183 168 164 184 196 207 214 221 227 228 231 228
110 94 73 72 75 87 97 97 95 100 97 106 119 124 129 134 133 128 123 115 113 116 110 115 113 115 112 109 137 140 142 142 156 136 144 148 173 155 147 161 181 202 209 219 217 221 226 222 219
88 74 78 76 75 82 94 97 97 94 100 116 123 124 129 133 130 125 122 121 121 116 109 106 113 107 91 90 103 101 114 131 134 131 112 113 141 320 168 190 170 192 199 204 214 224 225 225 211
29 105 103 106 108 102 99 100 98 103 112 118 119 127 128 122 120 119 118 119 120 117 115 113 112 104 97 77 53 96 94 108 113 113 120 78 77 357 360 16 16 258 234 193 217 236 232 228 226
224 93 57 94 123 121 108 103 111 117 123 126 129 131 130 128 126 123 121 122 122 117 111 110 113 109 108 107 88 60 73 85 84 99 107 108 53 30 358 347 293 298 272 236 229 228 217 217 220
315 43 334 240 157 128 112 104 122 136 134 136 136 138 138 135 133 132 130 128 123 116 115 125 128 117 115 123 163 125 73 78 92 95 100 99 57 61 318 279 260 277 276 258 233 242 229 225 222
304 243 207 237 198 154 151 138 154 154 146 142 142 144 142 143 144 141 137 133 128 127 122 123 125 124 129 132 155 114 116 109 102 108 113 112 5 18 314 298 317 300 287 297 257 264 251 238 232
271 245 196 180 218 181 167 141 147 162 157 149 150 148 145 148 149 146 144 143 138 133 133 132 116 124 139 136 137 206 111 98 94 85 84 113 82 333 285 316 319 302 294 310 301 335 272 271 263
258 254 261 179 214 181 167 156 165 175 165 158 159 154 151 152 154 151 148 143 139 134 133 133 121 117 134 136 152 186 147 128 106 97 80 97 73 345 321 311 329 310 336 340 326 305 265 262 266
263 278 294 253 233 227 206 171 169 175 174 165 163 161 156 153 152 152 150 146 144 139 139 139 138 130 135 142 173 181 185 174 141 137 133 129 37 4 351 334 324 330 356 326 321 317 296 265 269
276 289 268 280 262 264 264 158 163 174 176 171 168 166 158 155 150 154 155 153 150 146 147 147 150 146 154 150 165 182 167 170 153 124 136 144 134 310 281 281 300 345 348 319 306 305 314 302 213
289 289 287 276 277 283 210 173 211 179 171 173 168 165 163 159 157 157 161 161 156 153 156 155 150 150 153 152 158 152 131 140 126 157 166 169 169 192 315 347 333 329 309 268 269 287 296 303 298
276 274 277 283 284 284 262 236 223 200 180 172 165 164 164 160 158 157 163 167 160 158 155 148 148 149 149 167 168 175 181 183 182 185 176 154 154 308 316 343 322 325 328 334 298 98 306 313 302
275 286 285 293 293 285 274 242 229 196 180 173 166 164 172 162 157 158 162 164 162 161 156 149 146 152 155 173 162 188 190 190 167 154 152 169 163 213 303 6 314 314 315 345 344 10 352 4 310
280 285 295 311 287 262 250 220 213 184 177 181 166 164 164 156 153 154 156 157 163 158 153 147 146 151 160 170 166 195 187 158 23 179 136 203 168 174 230 140 326 318 332 347 319 320 315 323 314
252 262 280 290 266 253 233 207 224 168 175 170 157 158 153 152 152 152 154 155 162 157 154 147 149 156 163 165 165 184 186 194 209 256 188 258 226 123 57 41 309 300 329 336 344 324 309 317 315
249 253 250 273 282 293 270 149 136 137 139 141 146 153 150 153 153 154 156 156 160 157 152 149 154 160 166 167 163 160 175 213 212 233 260 243 270 38 100 88 92 357 352 336 357 326 304 325 306
256 255 248 257 266 273 262 160 158 162 145 139 147 152 151 151 153 154 156 157 161 161 156 153 152 158 163 164 157 158 179 190 198 170 227 289 312 106 93 80 100 315 321 332 331 306 310 320 288
250 263 274 278 291 301 300 267 196 163 165 157 155 166 156 150 149 148 154 158 161 160 154 149 148 152 158 153 165 162 170 164 174 217 235 342 352 19 60 30 339 300 322 311 298 299 302 306 301
240 248 254 268 282 287 292 284 183 182 167 159 159 173 151 146 149 148 150 147 147 153 151 149 150 155 156 154 160 148 158 165 169 175 190 132 346 16 25 320 325 313 303 281 283 288 295 300 301
259 261 263 261 258 265 277 281 190 167 159 145 147 153 137 138 141 139 139 142 150 149 150 155 154 157 157 156 154 152 152 162 175 178 184 163 189 257 142 317 326 321 324 317 308 302 311 306 304